This is the latest recevied weather packets stored in our database for station/object DG3RAP-11. If no packets are shown the sender has not sent any weather packets the latest 1 day(s).
| Time | Temp. | Humidity | Pressure | Rain* | Wind** | Luminosity | Snow |
|---|---|---|---|---|---|---|---|
| 1777959363 | 14.44° C | 73% | 1008.7 hPa | 0 mm | 0.89 m/s, 300° | - | - |
| 1777958823 | 15° C | 71% | 1008.5 hPa | 0 mm | 0.89 m/s, 347° | - | - |
| 1777958283 | 15° C | 69% | 1008.5 hPa | 0 mm | 0 m/s | - | - |
| 1777957743 | 14.44° C | 71% | 1008.6 hPa | 0 mm | 0.45 m/s, 354° | - | - |
| 1777957203 | 14.44° C | 72% | 1008.4 hPa | 0 mm | 0.45 m/s, 357° | - | - |
| 1777956843 | 13.89° C | 73% | 1008.5 hPa | 0 mm | 0.45 m/s, 23° | - | - |
| 1777956303 | 13.33° C | 74% | 1008.6 hPa | 0 mm | 0.45 m/s, 35° | - | - |
| 1777955763 | 13.33° C | 76% | 1008.6 hPa | 0 mm | 0 m/s | - | - |
| 1777955223 | 13.33° C | 75% | 1008.8 hPa | 0 mm | 0.45 m/s, 31° | - | - |
| 1777954683 | 13.33° C | 74% | 1008.6 hPa | 0 mm | 0.89 m/s, 40° | - | - |
| 1777954143 | 13.33° C | 73% | 1008.8 hPa | 0 mm | 0.89 m/s, 36° | - | - |
| 1777953603 | 13.33° C | 74% | 1008.6 hPa | 0 mm | 0.89 m/s, 33° | - | - |
| 1777953243 | 13.33° C | 74% | 1008.6 hPa | 0 mm | 0.45 m/s, 15° | - | - |
| 1777952703 | 13.33° C | 75% | 1008.7 hPa | 0 mm | 0.89 m/s, 334° | - | - |
| 1777952163 | 12.78° C | 76% | 1008.7 hPa | 0 mm | 0.45 m/s, 335° | - | - |
| 1777951623 | 12.78° C | 76% | 1008.8 hPa | 0 mm | 0.45 m/s, 337° | - | - |
| 1777951083 | 12.78° C | 77% | 1008.8 hPa | 0 mm | 0.45 m/s, 341° | - | - |
| 1777950543 | 13.33° C | 76% | 1008.8 hPa | 0 mm | 0.45 m/s, 11° | - | - |
| 1777950003 | 13.33° C | 77% | 1008.9 hPa | 0 mm | 0.45 m/s, 331° | - | - |
| 1777949643 | 13.33° C | 76% | 1008.8 hPa | 0 mm | 0 m/s | - | - |
| 1777949103 | 13.33° C | 75% | 1008.9 hPa | 0 mm | 0.45 m/s, 338° | - | - |
* Rain latest hour (hover to see other rain measurements)
** Current wind speed in m/s (hover to see current wind gust speed)